Hourly Data Report for September 22, 2019

All times are specified in Local Standard Time (LST). Add 1 hour to adjust for Daylight Saving Time where and when it is observed.

EUREKA CLIMATE
NUNAVUT
Current Station Operator: ECCC - MSC

79°59'21.000" N
85°56'02.000" W
10.00 m
2401199
71613
NEK

Download Data

Hourly Data (September 2019)
Hourly Data Report for September 22, 2019
TIME Temp Definition
°C
Dew Point Definition
°C
Rel Hum Definition
%
Wind Dir Definition
10's deg

Wind Spd Definition
km/h
Visibility Definition
km
Stn Press Definition
kPa
Hmdx Definition


Wind Chill Definition


Weather Definition


00:00 -9.6 -10.2 96 1 12   100.48   -15 LegendNANA
01:00 -9.4 -9.9 96 35 12   100.47   -15 LegendNANA
02:00 -9.2 -9.8 96 36 11   100.45   -15 LegendNANA
03:00 -9.6 -10.2 96 35 12   100.45   -15 LegendNANA
04:00 -10.1 -10.8 95 36 11   100.42   -16 LegendNANA
05:00 -10.3 -10.9 95 1 9   100.39   -15 LegendNANA
06:00 -11.1 -11.8 94 2 11   100.37   -17 LegendNANA
07:00 -10.9 -11.6 94 1 12   100.35   -17 LegendNANA
08:00 -10.6 -11.2 95 1 10   100.33   -16 LegendNANA
09:00 -10.1 -10.7 95 36 9   100.28   -15 LegendNANA
10:00 -9.9 -10.5 95 36 9   100.27   -15 LegendNANA
11:00 -9.6 -10.2 95 33 8   100.26   -14 LegendNANA
12:00 -8.4 -8.9 97 33 6   100.25   -12 LegendNANA
13:00 -7.8 -8.2 97 30 7   100.22   -11 LegendNANA
14:00 -7.6 -8.0 97 29 10   100.20   -12 LegendNANA
15:00 -7.2 -7.5 97 29 10   100.19   -12 LegendNANA
16:00 -7.1 -7.4 97 29 11   100.18   -12 LegendNANA
17:00 -6.9 -7.3 97 29 8   100.16   -11 LegendNANA
18:00 -6.8 -7.3 97 31 6   100.13   -10 LegendNANA
19:00 -7.1 -7.7 95 31 5   100.11   -10 LegendNANA
20:00 -7.3 -7.9 95 36 7   100.06   -11 LegendNANA
21:00 -7.1 -7.9 95 1 6   100.02   -10 LegendNANA
22:00 -6.9 -8.1 92 31 5   99.98   -9 LegendNANA
23:00 -7.0 -8.0 92 31 3   99.94   -9 LegendNANA

Notes on Data Quality.

Legend

  • E = Estimated
  • M = Missing
  • NA = Not Available
Date modified: